SITRO-AIS 12 (SMIRENNIY)

Last updated on Mon Feb 16 2026 00:03:50 GMT+0000 (Coordinated Universal Time)

1 57204U 23091AQ 26046.58211073 .00023291 00000+0 71637-3 0 9991 2 57204 97.5252 114.7834 0008316 136.8213 223.3682 15.33645729146103
UTC large
Height (km)
Speed (km/s)
/
Latitude / Longitude
Inclination (degrees)
Orbital Period (minutes)
Azimuth
Elevation
Range (km)
Doppler Factor

Next 0 passes for location: London (51.5072 / 0.1276)

Sorry there are no passes over London.